Location: Tel Aviv
(32.0670°N, 34.7670°E)
Time: 11:43:50
(UTC+03:00)

Explorer 11/Cluster Stage 4 - Pass Details

Date: 17 September 2024
Orbit: 464 x 1208 km, 28.8° (Epoch: 06 October)

Event Time Altitude Azimuth Distance (km) Brightness Sun altitude
Rises 09:36:53 0° 272° (W) 3,772 9.6 38.4°
Reaches altitude 10° 09:39:30 10° 268° (W) 2,907 9.2 38.9°
Maximum altitude 09:46:44 61° 191° (S) 1,311 8.5 40.3°
Drops below altitude 10° 09:54:35 10° 113° (ESE) 3,141 10.8 41.7°
Sets 09:57:31 0° 110° (ESE) 4,092 11.1 42.3°
